Location: Menands
(42.6920°N, 73.7246°W)
Time: 02:43:05
(UTC+00:00)

Cosmos 1943 - Pass Details

Date: 18 February 2026
Orbit: 830 x 850 km, 71.0° (Epoch: 8 March)

Event Time Altitude Azimuth Distance (km) Brightness Sun altitude
Rises 23:30:10 0° 343° (NNW) 3,424 6.5 -11.6°
Reaches altitude 10° 23:32:58 10° 355° (N) 2,484 5.7 -12.1°
Maximum altitude 23:37:52 29° 54° (NE) 1,524 4.1 -13.0°
Enters shadow 23:40:54 18° 99° (E) 1,944 4.5 -13.5°
